Regional Weather Roundup
Issued by NWS New Orleans/Baton Rouge, LA

Home | Current Version | Previous Version | Text Only | Print | Product List | Glossary Off
Versions: 1 2 3 4 5 6 7 8 9 10 11 12 13 14 15 16 17 18 19 20 21 22 23 24 25 26 27 28 29 30 31 32 33 34 35 36 37 38 39 40 41 42 43 44 45 46 47 48 49 50

339
ASUS44 KLIX 232105
RWRLIX
NEW ORLEANS REGIONAL WEATHER ROUNDUP
NATIONAL WEATHER SERVICE NEW ORLEANS LA
400 PM CDT WED JUL 23 2014

NOTE: "FAIR" INDICATES FEW OR NO CLOUDS BELOW 12,000 FEET WITH NO
      SIGNIFICANT WEATHER AND/OR OBSTRUCTIONS TO VISIBILITY.
      SKY/WX - SKY CONDITION AND SIGNIFICANT WEATHER.
      TMP - AIR TEMPERATURE.     DP    - DEWPOINT TEMPERATURE.
      RH  - RELATIVE HUMIDITY.   PRES  - PRESSURE.
      HI  - HEAT INDEX.          WCI   - WIND CHILL INDEX.

*  THESE STATIONS ARE NOT NWS OR FAA STATIONS AND ARE NOT UNDER
   NWS QUALITY CONTROL.

LAZ038-040-048-061>063-065>067-069-232200-
SOUTHEAST LOUISIANA

CITY           SKY/WX    TMP DP  RH WIND       PRES   REMARKS
N.O. AUDUBON     N/A     82  72  71 MISG        N/A
N.O. INTL ARPT PTSUNNY   82  73  74 SE10      30.00F
N.O. LAKEFRONT CLOUDY    82  72  71 SE8       30.01F
N.O. DOWNTOWN*   N/A     82  68  61 S7        30.01F
SLIDELL        PTSUNNY   85  72  65 SE6       30.00F
BATON ROUGE    PTSUNNY   85  72  65 E10       29.98F
BOOTHVILLE       N/A     82  71  69 SW5       30.02F
BELLE CHASSE   CLOUDY    81  71  71 E5        30.01F
BOGALUSA*        N/A     87  70  58 SE6       30.02F
GALLIANO*      NOT AVBL
NEW ROADS*       N/A     88  70  54 CALM      29.99F
GONZALES*      MOCLDY    86  74  68 SE7       29.98F
HAMMOND*       PTSUNNY   86  68  54 S7        30.01F
HOUMA*         PTSUNNY   82  70  65 SE6       30.02F
PORT FOURCHON* CLEAR     81  73  78 SE8       30.03F

$$

MSZ070-080>082-232200-
SOUTHERN MISSISSIPPI

CITY           SKY/WX    TMP DP  RH WIND       PRES   REMARKS
MCCOMB         SUNNY     87  68  52 SW6       30.00F
GULFPORT       PTSUNNY   87  71  58 S7        30.00F
BILOXI         PTSUNNY   82  73  75 S3        30.01F
PASCAGOULA     CLOUDY    83  73  72 VRB3      30.01F
STENNIS ARPT*  MOSUNNY  N/A N/A N/A CALM      30.00F

$$

COASTAL OBSERVATIONS
LAKE AND NEARSHORE STATIONS

STATION/POSITION TIME  TEMP    WIND        PRES    WAVE
                       AIR SEA DIR/SP/G            HT/PER
                 (UTC) (F)     (DEG/KT/KT) (MB)    (FT/S)
WAVELAND YACHT   2100   81     180/  6/  9 1015.4
GRAND ISLE       2100   80 84  160/  3/  6 1017.2
SOUTHWEST PASS   2100   86 85  210/  3/  7 1017.0
NEW CANAL        2100   83 82   CALM  /  3 1016.6
SHELL BEACH      2100   81 81  140/  2/  6 1016.1

OFFSHORE STATIONS

STATION/POSITION TIME  TEMP    WIND        PRES    WAVE
                       AIR SEA DIR/SP/G            HT/PER
                 (UTC) (F)     (DEG/KT/KT) (MB)    (FT/S)
64 S DAUPHIN ISL 1952   81 87   70/  2/  2 1016.9

$$




USA.gov is the U.S. government's official web portal to all federal, state and local government web resources and services.